Regional Weather Roundup
Issued by NWS

Home | Current Version | Previous Version | Text Only | Print | Product List | Glossary On
Versions: 1 2 3 4 5 6 7 8 9 10 11 12 13 14 15 16 17 18 19 20 21 22 23 24 25 26 27 28 29 30 31 32 33 34 35 36 37 38 39 40 41 42 43 44 45 46 47 48 49 50
000
ASUS43 KDMX 071606
RWRIA

WEATHER ROUNDUP FOR IOWA
NATIONAL WEATHER SERVICE DES MOINES IA
1000 AM CST WED DEC 07 2016

NOTE: "FAIR" INDICATES FEW OR NO CLOUDS BELOW 12,000 FEET WITH NO
SIGNIFICANT WEATHER AND/OR OBSTRUCTIONS TO VISIBILITY.

* - THESE STATIONS ARE NOT NWS STATIONS...THUS NOT UNDER NWS
QUALITY CONTROL.  THEY ALSO DO NOT REPORT WEATHER SUCH
AS PRECIPITATION OR FOG.

IAZ001>003-012>014-020>022-031>034-043>046-071700-
   NORTHWEST IOWA

CITY           SKY/WX    TMP DP  RH WIND       PRES   REMARKS
CARROLL *      CLOUDY    18  10  73 W21       30.23R WCI   1
CHEROKEE *     CLOUDY    14   7  72 W17G23    30.23S WCI  -2
DENISON *      CLOUDY    16   9  73 NW13G20   30.24R WCI   2
LE MARS *      CLOUDY    16   7  67 NW20      30.26S WCI  -1
ORANGE CITY *  CLOUDY    14   9  79 W21       30.22R WCI  -4
SHELDON *      CLOUDY    12   7  79 W18       30.19R WCI  -5
SIOUX CITY     CLOUDY    17   6  62 NW18G26   30.29R WCI   1
SPENCER        SUNNY     14   5  67 W31G39    30.18R WCI  -7
STORM LAKE *   CLOUDY    14   7  73 W23       30.20R WCI  -5
$$

IAZ055>058-069>071-079>083-090>094-071700-
   SOUTHWEST IOWA

CITY           SKY/WX    TMP DP  RH WIND       PRES   REMARKS
ATLANTIC *     CLOUDY    18   9  68 NW14      30.28R WCI   4
AUDUBON *      CLOUDY    18   9  68 W12G18    30.25R WCI   5
CLARINDA *     PTSUNNY   21  12  68 NW14      30.32R WCI   8
COUNCIL BLFS * CLOUDY    18   9  68 NW17      30.30R WCI   2
CRESTON *      CLOUDY    19  10  68 NW15      30.24R WCI   5
HARLAN  *      CLOUDY    18  10  73 NW17      30.30R WCI   2
LAMONI         CLOUDY    22  12  65 NW10      30.22S WCI  11
RED OAK *      MOSUNNY   19  10  68 NW7G15    30.31R WCI  10
SHENANDOAH *   CLOUDY    21  10  63 NW10      30.33R WCI  10
$$

IAZ047>049-059>061-072>074-084-071700-
   CENTRAL IOWA

CITY           SKY/WX    TMP DP  RH WIND       PRES   REMARKS
AMES           CLOUDY    18  11  74 W14       30.22R WCI   4
ANKENY *       MOSUNNY   19  10  68 W16       30.25R WCI   5
BOONE *        CLOUDY    16   9  73 W15G23    30.20R WCI   1
CHARITON *     CLOUDY    21  12  68 NW13      30.23S WCI   9
DES MOINES     CLOUDY    20   9  62 NW16      30.24R WCI   6
GRINNELL*      CLOUDY    19  12  76 W15G21    30.21R WCI   4
KNOXVILLE *    CLOUDY    21  10  63 W15       30.23R WCI   8
MARSHALLTOWN   MOSUNNY   18  11  74 NW17      30.20R WCI   3
NEWTON *       CLOUDY    18  12  79 W14       30.21R WCI   4
PELLA *        CLOUDY    21  12  68 NW14G20   30.25R WCI   8
PERRY *          N/A     18  13  80 W15       30.24R WCI   4
$$

IAZ004>006-015-016-023>025-035-036-071700-
   NORTH CENTRAL IOWA

CITY           SKY/WX    TMP DP  RH WIND       PRES   REMARKS
ALGONA *       CLOUDY    16   9  73 W21G28    30.16R WCI  -2
CLARION *      CLOUDY    16   9  73 W20       30.17R WCI  -1
ESTHERVILLE    SUNNY     14   8  77 W21       30.15R WCI  -4
FORT DODGE *   CLOUDY    16   7  67 W13G20    30.21R WCI   2
MASON CITY     CLOUDY    15   8  73 W22       30.14R WCI  -3
FOREST CITY *    N/A     14   9  79 W20G25    30.13R WCI  -3
WEBSTER CITY * CLOUDY    18  10  73 W21       30.18R WCI   1
IOWA FALLS *     N/A     17  11  78 W20       30.18R WCI   0
$$

IAZ007>011-017>019-026>030-037>042-050>054-066-071700-
   NORTHEAST IOWA

CITY           SKY/WX    TMP DP  RH WIND       PRES   REMARKS
CEDAR RAPIDS   CLOUDY    19  15  84 W15       30.17R WCI   5
CHARLES CITY * CLOUDY    16   9  73 W21       30.13R WCI  -2
CLINTON *      MOSUNNY   22  16  78 W20       30.15S WCI   7
DECORAH *      PTSUNNY   16   9  73 W8G16     30.08R WCI   5
DUBUQUE        CLOUDY    17  11  77 W14       30.12R WCI   3
MONTICELLO *   PTSUNNY   19  12  73 W16       30.15R WCI   5
OELWEIN *      PTSUNNY   16  10  79 W18       30.13R WCI  -1
WATERLOO       CLOUDY    17   9  70 W15       30.16R WCI   2
$$

IAZ064-065-067-068-078-071700-
   EAST CENTRAL IOWA

CITY           SKY/WX    TMP DP  RH WIND       PRES   REMARKS
DAVENPORT      MOSUNNY   23  16  74 W17       30.17R WCI   9
IOWA CITY      MOSUNNY   23  14  68 W15       30.21R WCI  10
MUSCATINE *    PTSUNNY   25  14  63 W14       30.21R WCI  13
QUAD CITIES    CLOUDY    26  15  63 W12       30.17S WCI  16
$$

IAZ062-063-075>077-085>089-095>099-071700-
   SOUTHEAST IOWA

CITY           SKY/WX    TMP DP  RH WIND       PRES   REMARKS
BURLINGTON     SUNNY     26  16  65 NW9       30.19S WCI  17
FAIRFIELD *    SUNNY     25  14  63 W18       30.20S WCI  11
FORT MADISON * MOSUNNY   27  16  63 NW10      30.21R WCI  17
KEOKUK *       CLOUDY    28  16  59 NW9       30.20S WCI  20
OSKALOOSA *      N/A     22  15  72 W14       30.23R WCI  10
CENTERVILLE *    N/A     23  12  63 NW14      30.24R WCI  11
OTTUMWA        SUNNY     24  12  60 W12       30.22R WCI  13
WASHINGTON *   SUNNY     25  18  74 NW14      30.21R WCI  13
$$

ABBREVIATIONS USED IN REMARKS
   TC - TEMPERATURES IN CELSIUS
  WCI - WIND CHILL INDEX
   HX - HEAT INDEX
  VSB - VISIBILITY
$$





USA.gov is the U.S. government's official web portal to all federal, state and local government web resources and services.